Stations météo

réclame
Mon MeteoGroup
Dieppe, France (7040): Température de l'air & dewpoint: 20.08.2019 02:00:00 - 26.08.2019 02:00:00 (CEST)Dieppe, France (7040): Température de l'air 5cm: 20.08.2019 02:00:00 - 26.08.2019 02:00:00 (CEST)Dieppe, France (7040): Vitesse du vent & gusts: 20.08.2019 02:00:00 - 26.08.2019 02:00:00 (CEST)Dieppe, France (7040): Direction du vent: 20.08.2019 02:00:00 - 26.08.2019 02:00:00 (CEST)Dieppe, France (7040): reduced air pressure: 20.08.2019 02:00:00 - 26.08.2019 02:00:00 (CEST)Dieppe, France (7040): visibility: 20.08.2019 02:00:00 - 26.08.2019 02:00:00 (CEST)Dieppe, France (7040): Quantités de précipitations: 20.08.2019 02:00:00 - 26.08.2019 02:00:00 (CEST)
Date & Time tt [°C] td [°C] tt 5cm [°C] ff [km/h] ff [knt] fx [km/h] fx [knt] dd ppp [hPa] vv [km] rr [mm]
26.08.2019 02:00:00 17,4 16,9 16,5 8 4 12 7 S 1019,0 0,6 0,0
26.08.2019 01:00:00 17,3 16,7 16,5 5 3 16 8 SSW 1019,3 - 0,0
26.08.2019 00:00:00 18,1 17,6 17,5 11 6 24 13 W 1019,4 - 0,0
25.08.2019 23:00:00 19,1 18,3 18,4 12 6 24 13 W 1019,2 - 0,0
25.08.2019 22:00:00 20,7 18,6 17,5 8 4 15 8 W 1018,9 - 0,0
25.08.2019 21:00:00 21,1 18,7 20,3 5 3 13 7 W 1018,2 - 0,0
25.08.2019 20:00:00 22,8 19,2 22,5 6 3 11 6 W 1018,1 - 0,0
25.08.2019 19:00:00 25,1 19,5 26,1 5 3 10 6 WNW 1018,0 - 0,0
25.08.2019 18:00:00 25,2 17,4 25,7 6 3 14 8 NNE 1018,0 - 0,0
25.08.2019 17:00:00 25,8 18,5 28,0 8 5 15 8 NE 1018,0 12 0,0
25.08.2019 16:00:00 25,9 18,6 31,4 9 5 15 8 NE 1018,1 - 0,0
25.08.2019 15:00:00 26,6 17,7 29,9 10 6 18 10 NE 1018,3 - 0,0
25.08.2019 14:00:00 25,6 19,3 29,1 11 6 16 9 NE 1018,0 12 0,0
25.08.2019 13:00:00 25,6 18,0 28,2 13 7 19 10 ENE 1018,2 - 0,0
25.08.2019 12:00:00 26,6 17,1 31,5 7 4 17 9 NE 1018,2 - 0,0
25.08.2019 11:00:00 26,8 15,5 25,9 11 6 19 11 S 1018,1 - 0,0
25.08.2019 10:00:00 22,7 14,8 21,2 13 7 22 12 S 1018,0 - 0,0
25.08.2019 09:00:00 18,1 13,6 17,0 15 8 22 12 S 1017,5 - 0,0
25.08.2019 08:00:00 15,6 12,9 14,9 16 8 25 14 S 1017,3 - 0,0
25.08.2019 07:00:00 16,0 12,7 15,3 15 8 23 12 S 1017,0 - 0,0
25.08.2019 06:00:00 17,3 13,0 16,4 15 8 22 12 S 1016,8 - 0,0
25.08.2019 05:00:00 17,3 13,2 16,5 14 8 20 11 S 1016,9 15 0,0
25.08.2019 04:00:00 17,5 13,2 16,9 13 7 19 11 S 1016,8 - 0,0
25.08.2019 03:00:00 17,4 13,1 16,8 13 7 18 10 SSE 1016,7 - 0,0
25.08.2019 02:00:00 17,8 13,3 17,2 12 6 19 11 SSE 1017,0 12 0,0
25.08.2019 01:00:00 18,0 13,9 17,2 11 6 18 10 S 1016,9 - 0,0
25.08.2019 00:00:00 18,9 14,8 18,1 11 6 16 9 S 1017,1 - 0,0
24.08.2019 23:00:00 20,5 14,8 16,9 5 3 11 6 SSE 1017,1 - 0,0
24.08.2019 22:00:00 21,5 13,9 18,3 5 3 16 9 ENE 1017,1 - 0,0
24.08.2019 21:00:00 22,1 16,1 21,0 15 8 27 15 ENE 1017,1 - 0,0
24.08.2019 20:00:00 22,1 16,6 21,7 17 9 29 15 ENE 1016,9 11 0,0
24.08.2019 19:00:00 22,3 17,7 23,5 19 10 26 14 ENE 1017,2 - 0,0
24.08.2019 18:00:00 22,5 18,5 23,7 17 9 23 12 NE 1017,3 - 0,0
24.08.2019 17:00:00 23,4 18,7 25,3 14 7 21 11 NE 1017,6 11 0,0
24.08.2019 16:00:00 24,9 18,3 29,7 9 5 16 9 NE 1017,8 - 0,0
24.08.2019 15:00:00 25,0 17,5 28,2 6 3 13 7 NNE 1018,1 - 0,0
24.08.2019 14:00:00 24,3 17,5 27,2 7 4 16 9 N 1018,4 - 0,0
24.08.2019 13:00:00 23,2 17,6 26,1 7 4 13 7 NNE 1018,8 - 0,0
24.08.2019 12:00:00 22,3 16,1 27,8 6 4 10 5 NE 1019,3 - 0,0
24.08.2019 11:00:00 23,2 16,0 23,1 4 2 11 6 S 1019,5 - 0,0
24.08.2019 10:00:00 18,6 13,9 18,5 6 4 14 7 S 1019,5 - 0,0
24.08.2019 09:00:00 14,7 11,8 14,3 8 4 14 7 S 1019,6 - 0,0
24.08.2019 08:00:00 12,2 10,8 11,4 9 5 14 8 SSE 1019,5 10 0,0
24.08.2019 07:00:00 11,8 10,7 11,4 9 5 16 8 SSE 1019,6 - 0,0
24.08.2019 06:00:00 12,2 10,9 11,8 8 5 16 8 SSE 1019,7 - 0,0
24.08.2019 05:00:00 12,5 11,2 12,1 9 5 16 8 SSE 1020,2 10 0,0
24.08.2019 04:00:00 12,9 11,5 12,5 9 5 18 10 SSE 1020,4 - 0,0
24.08.2019 03:00:00 13,5 11,9 13,0 10 5 14 8 SSE 1020,7 - 0,0
24.08.2019 02:00:00 14,1 12,1 13,4 7 4 14 7 SSE 1021,0 - 0,0
24.08.2019 01:00:00 15,0 12,5 14,5 11 6 14 8 SSE 1021,2 - 0,0
24.08.2019 00:00:00 17,1 13,0 16,3 8 5 13 7 SSE 1021,6 - 0,0
23.08.2019 23:00:00 18,3 14,4 15,3 6 4 16 9 ENE 1021,9 15 0,0
23.08.2019 22:00:00 18,7 14,8 17,4 12 6 24 13 ENE 1022,0 - 0,0
23.08.2019 21:00:00 19,0 17,1 18,3 17 9 22 12 NE 1022,1 - 0,0
23.08.2019 20:00:00 19,3 16,7 19,0 16 9 23 12 NE 1022,1 - 0,0
23.08.2019 19:00:00 20,6 16,6 22,1 12 7 22 12 NE 1022,5 - 0,0
23.08.2019 18:00:00 21,0 15,1 22,3 14 7 22 12 NE 1022,9 - 0,0
23.08.2019 17:00:00 21,2 15,7 23,3 10 6 21 11 NNE 1023,5 25 0,0
23.08.2019 16:00:00 21,0 15,8 25,8 10 6 19 10 NE 1023,9 - 0,0
23.08.2019 15:00:00 20,2 15,4 24,4 9 5 23 12 NNE 1024,5 - 0,0
23.08.2019 14:00:00 20,0 15,0 23,0 9 5 20 11 NNE 1024,8 - 0,0
23.08.2019 13:00:00 19,6 15,0 21,9 10 5 19 10 NNE 1025,2 - 0,0
23.08.2019 12:00:00 19,4 14,9 23,4 12 6 20 11 NE 1025,5 - 0,0
23.08.2019 11:00:00 19,1 14,8 20,2 10 6 17 9 NE 1025,8 13 0,0
23.08.2019 10:00:00 15,5 11,7 15,7 5 3 13 7 S 1025,8 - 0,0
23.08.2019 09:00:00 11,9 9,6 12,0 10 6 16 9 SSE 1026,0 - 0,0
23.08.2019 08:00:00 10,1 9,0 9,5 12 7 16 9 SSE 1025,8 - 0,0
23.08.2019 07:00:00 9,8 8,9 9,5 11 6 16 9 SSE 1025,7 - 0,0
23.08.2019 06:00:00 10,1 9,2 9,8 13 7 19 10 SSE 1025,7 - 0,0
23.08.2019 05:00:00 10,6 9,5 10,3 12 7 19 10 SSE 1026,0 13 0,0
23.08.2019 04:00:00 11,1 9,8 10,8 13 7 19 11 SSE 1026,2 - 0,0
23.08.2019 03:00:00 11,6 10,2 11,3 13 7 18 10 S 1026,2 - 0,0
23.08.2019 02:00:00 12,3 10,7 11,9 11 6 18 10 S 1026,5 - 0,0
23.08.2019 01:00:00 12,9 11,0 12,5 10 6 15 8 S 1026,6 - 0,0
23.08.2019 00:00:00 13,8 11,3 13,2 8 5 11 6 S 1026,7 - 0,0
22.08.2019 23:00:00 15,5 11,7 11,0 5 3 7 4 S 1026,8 13 0,0
22.08.2019 22:00:00 16,6 11,5 12,2 0 0 5 3 N 1026,7 - 0,0
22.08.2019 21:00:00 17,4 11,7 15,4 3 1 9 5 NNE 1026,4 - 0,0
22.08.2019 20:00:00 18,6 12,6 18,2 5 3 13 7 NNE 1026,2 - 0,0
22.08.2019 19:00:00 20,1 12,8 20,7 8 4 15 8 NNW 1026,1 - 0,0
22.08.2019 18:00:00 20,5 14,8 21,5 10 6 17 9 N 1026,2 - 0,0
22.08.2019 17:00:00 21,4 15,5 23,0 9 5 19 11 NNW 1026,4 14 0,0
22.08.2019 16:00:00 21,3 14,9 25,3 13 7 18 10 N 1026,5 - 0,0
22.08.2019 15:00:00 21,6 15,0 24,6 11 6 16 9 NNW 1026,8 - 0,0
22.08.2019 14:00:00 21,2 13,6 23,4 11 6 16 9 NW 1027,0 - 0,0
22.08.2019 13:00:00 20,5 12,5 22,9 7 4 12 6 NW 1027,0 - 0,0
22.08.2019 12:00:00 20,5 10,9 24,6 8 4 11 6 NW 1027,2 - 0,0
22.08.2019 11:00:00 18,0 11,1 18,8 3 2 9 5 W 1027,0 15 0,0
22.08.2019 10:00:00 13,9 11,8 13,7 8 4 15 8 SSE 1026,8 - 0,0
22.08.2019 09:00:00 11,2 10,9 10,4 11 6 21 11 SSE 1026,5 - 0,0
22.08.2019 08:00:00 10,1 9,8 9,8 13 7 20 11 SSE 1026,2 - 0,0
22.08.2019 07:00:00 10,2 9,9 9,8 13 7 19 11 SSE 1025,8 - 0,0
22.08.2019 06:00:00 10,6 10,1 10,2 13 7 18 10 S 1025,7 - 0,0
22.08.2019 05:00:00 11,3 10,7 10,8 10 5 14 8 SSE 1025,8 - 0,0
22.08.2019 04:00:00 12,0 11,1 11,6 9 5 13 7 S 1025,9 - 0,2
22.08.2019 03:00:00 12,4 11,5 11,9 8 5 11 6 S 1026,2 - 0,0
22.08.2019 02:00:00 13,1 11,8 12,4 7 4 11 6 S 1026,5 10 0,0
22.08.2019 01:00:00 13,8 11,8 13,0 6 3 9 5 S 1026,5 - 0,0
22.08.2019 00:00:00 15,0 12,3 13,1 0 0 6 3 N 1026,6 - 0,0
21.08.2019 23:00:00 16,3 12,6 12,5 4 2 8 4 N 1026,6 10 0,0
21.08.2019 22:00:00 16,6 12,5 14,8 7 4 15 8 NE 1026,5 - 0,0
21.08.2019 21:00:00 17,7 12,8 16,6 6 3 15 8 NNE 1026,4 - 0,0
21.08.2019 20:00:00 18,2 12,9 17,9 8 4 20 11 NNE 1026,3 - 0,0
21.08.2019 19:00:00 18,7 12,9 19,6 14 7 20 11 N 1026,5 - 0,0
21.08.2019 18:00:00 19,0 13,0 20,1 15 8 25 14 N 1026,9 - 0,0
21.08.2019 17:00:00 19,1 13,3 21,1 13 7 27 14 N 1026,8 20 0,0
21.08.2019 16:00:00 19,4 12,6 23,0 16 8 29 16 N 1027,1 - 0,0
21.08.2019 15:00:00 19,2 11,7 22,3 16 9 23 12 N 1027,5 - 0,0
21.08.2019 14:00:00 19,4 12,6 23,1 13 7 21 11 N 1027,8 - 0,0
21.08.2019 13:00:00 19,6 11,9 22,6 9 5 16 8 N 1028,1 - 0,0
21.08.2019 12:00:00 19,5 10,5 21,5 0 0 14 7 N 1028,7 - 0,0
21.08.2019 11:00:00 17,0 13,5 17,1 5 3 11 6 SSW 1028,9 12 0,0
21.08.2019 10:00:00 14,2 11,5 13,8 8 5 17 9 S 1029,1 - 0,0
21.08.2019 09:00:00 11,4 9,8 10,5 13 7 19 10 SSE 1028,9 - 0,0
21.08.2019 08:00:00 9,1 8,2 8,7 14 8 19 10 S 1028,6 12 0,0
21.08.2019 07:00:00 8,9 8,0 8,7 14 7 20 11 SSE 1028,4 - 0,0
21.08.2019 06:00:00 9,3 8,5 8,8 15 8 21 11 S 1028,0 - 0,0
21.08.2019 05:00:00 9,5 8,4 9,1 13 7 19 10 S 1028,0 - 0,0
21.08.2019 04:00:00 10,1 8,9 9,7 13 7 17 9 S 1028,1 - 0,0
21.08.2019 03:00:00 10,8 9,2 10,4 11 6 19 11 S 1028,1 - 0,0
21.08.2019 02:00:00 11,5 9,6 10,8 9 5 14 8 S 1028,3 - 0,0
21.08.2019 01:00:00 13,0 10,2 12,5 9 5 16 9 SSE 1028,2 - 0,0
21.08.2019 00:00:00 13,8 10,4 13,1 9 5 15 8 S 1028,1 - 0,0
20.08.2019 23:00:00 15,0 10,6 13,7 6 4 16 9 S 1027,9 - 0,0
20.08.2019 22:00:00 15,6 10,8 14,1 7 4 18 10 SW 1027,6 - 0,0
20.08.2019 21:00:00 16,5 10,3 15,5 9 5 21 11 WSW 1027,2 - 0,0
20.08.2019 20:00:00 17,6 10,5 17,3 14 7 26 14 W 1026,7 18 0,0
20.08.2019 19:00:00 18,6 10,2 19,4 13 7 25 14 W 1026,4 - 0,0
20.08.2019 18:00:00 18,9 12,9 19,2 15 8 31 17 WNW 1026,3 - 0,0
20.08.2019 17:00:00 18,8 11,8 19,9 23 12 33 18 W 1025,9 18 0,0
20.08.2019 16:00:00 18,6 12,6 20,4 23 12 34 19 WNW 1025,6 - 0,0
20.08.2019 15:00:00 18,6 11,9 21,4 23 12 35 19 WNW 1025,3 - 0,0
20.08.2019 14:00:00 18,7 12,0 19,2 20 11 33 18 W 1025,0 12 0,0
20.08.2019 13:00:00 18,2 11,3 19,2 20 11 37 20 W 1024,7 - 0,0
20.08.2019 12:00:00 18,5 12,7 18,3 17 9 29 16 W 1024,2 - 0,0
20.08.2019 11:00:00 17,4 11,7 18,2 15 8 29 16 W 1024,1 - 0,0
20.08.2019 10:00:00 16,6 12,1 17,9 9 5 19 11 SW 1023,7 - 0,0
20.08.2019 09:00:00 13,9 11,4 12,9 10 6 21 11 S 1023,4 - 0,0
20.08.2019 08:00:00 12,7 10,8 12,0 14 8 21 12 S 1022,8 - 0,0
20.08.2019 07:00:00 12,2 10,6 11,8 12 7 20 11 SSE 1022,3 - 0,0
20.08.2019 06:00:00 12,2 10,6 11,8 13 7 19 11 SSE 1021,6 - 0,0
20.08.2019 05:00:00 12,7 10,8 12,1 9 5 16 9 S 1021,5 10 0,0
20.08.2019 04:00:00 12,8 10,9 12,3 10 6 16 9 S 1021,4 - 0,0
20.08.2019 03:00:00 13,0 10,9 12,5 10 5 17 9 S 1021,6 - 0,0
20.08.2019 02:00:00 13,5 11,5 12,9 9 5 16 8 S 1021,5 14 0,0

tt = Température de l'air
td = dewpoint
tt 5cm = Température de l'air 5cm
ff = Vitesse du vent
fx = gusts
dd = Direction du vent
ppp = reduced air pressure
vv = visibility
rr = Quantités de précipitations

stations d'obs. à proximité